Regional Weather Roundup
Issued by NWS

Home | Current Version | Previous Version | Text Only | Print | Product List | Glossary Off
Versions: 1 2 3 4 5 6 7 8 9 10 11 12 13 14 15 16 17 18 19 20 21 22 23 24 25 26 27 28 29 30 31 32 33 34 35 36 37 38 39 40 41 42 43 44 45 46 47 48 49 50

000
ASUS43 KBIS 231310
RWRND

NORTH DAKOTA REGIONAL WEATHER ROUNDUP
NATIONAL WEATHER SERVICE BISMARCK ND
700 AM CST THU NOV 23 2017

NOTE: "FAIR" INDICATES FEW OR NO CLOUDS BELOW 12,000 FEET WITH NO
SIGNIFICANT WEATHER AND/OR OBSTRUCTIONS TO VISIBILITY.


NDZ001>003-009>011-017-231400-
NORTHWEST NORTH DAKOTA

CITY           SKY/WX    TMP DP  RH WIND       PRES   REMARKS
WILLISTON      CLOUDY    29  27  92 SW7       29.75S
MINOT          CLEAR     36  32  85 SW17      29.71F
MINOT AFB      CLOUDY    27  25  92 S3        29.71F
$$

NDZ018>021-031>035-040>046-231400-
SOUTHWEST NORTH DAKOTA

CITY           SKY/WX    TMP DP  RH WIND       PRES   REMARKS
BISMARCK       CLOUDY    26  22  84 CALM      29.83F
DICKINSON      CLOUDY    45  39  79 W14       29.80S
GARRISON         N/A     27  27 100 CALM      29.77F
HETTINGER ARPT CLOUDY    41  36  82 W6        29.88F
$$

NDZ004>008-012>016-024-026-027-054-231400-
NORTHEAST NORTH DAKOTA

CITY           SKY/WX    TMP DP  RH WIND       PRES   REMARKS
GRAND FORKS    CLOUDY    29  27  92 S7        29.88F
GRND FRKS AFB  CLOUDY    30  28  93 SW8       29.86F
DEVILS LAKE    CLOUDY    21  20  96 SE7       29.82F WCI  12
$$

NDZ022-023-025-028>030-036>039-047>053-231400-
SOUTHEAST NORTH DAKOTA

CITY           SKY/WX    TMP DP  RH WIND       PRES   REMARKS
FARGO          CLOUDY    28  22  78 S5        29.93S
JAMESTOWN      CLOUDY    22  20  92 S8        29.85F WCI  12
$$





USA.gov is the U.S. government's official web portal to all federal, state and local government web resources and services.